Time,TemperatureF,DewpointF,PressureIn,WindDirection,WindDirectionDegrees,WindSpeedMPH,WindSpeedGustMPH,Humidity,HourlyPrecipIn,Conditions,Clouds,dailyrainin,SoftwareType,DateUTC
2013-05-28 00:02:00,46.6,42.0,29.20,NNW,348,1.0,5.0,85,0.00,,,0.00,weatherlink.com 1.10,2013-05-27 23:02:00,
2013-05-28 00:17:00,46.2,42.0,29.20,NNW,328,0.0,7.0,85,0.00,,,0.00,weatherlink.com 1.10,2013-05-27 23:17:00,
2013-05-28 00:32:00,45.7,42.0,29.21,WNW,285,1.0,5.0,86,0.00,,,0.00,weatherlink.com 1.10,2013-05-27 23:32:00,
2013-05-28 00:47:00,45.6,42.0,29.21,NW,312,4.0,7.0,86,0.00,,,0.00,weatherlink.com 1.10,2013-05-27 23:47:00,
2013-05-28 01:02:00,45.7,42.0,29.21,WNW,302,6.0,8.0,86,0.00,,,0.00,weatherlink.com 1.10,2013-05-28 00:02:00,
2013-05-28 01:17:00,45.9,42.0,29.21,NW,325,3.0,7.0,87,0.00,,,0.00,weatherlink.com 1.10,2013-05-28 00:17:00,
2013-05-28 01:32:00,46.0,42.0,29.22,WSW,240,5.0,8.0,87,0.00,,,0.00,weatherlink.com 1.10,2013-05-28 00:32:00,
2013-05-28 01:47:00,45.6,42.0,29.21,SW,235,1.0,6.0,87,0.00,,,0.00,weatherlink.com 1.10,2013-05-28 00:47:00,
2013-05-28 02:03:00,45.1,42.0,29.21,NW,305,5.0,9.0,88,0.00,,,0.00,weatherlink.com 1.10,2013-05-28 01:03:00,
2013-05-28 02:18:00,44.8,42.0,29.21,WSW,238,6.0,8.0,88,0.00,,,0.00,weatherlink.com 1.10,2013-05-28 01:18:00,
2013-05-28 02:33:00,44.7,42.0,29.21,WSW,238,7.0,10.0,89,0.00,,,0.00,weatherlink.com 1.10,2013-05-28 01:33:00,
2013-05-28 02:48:00,44.7,42.0,29.21,SSW,198,0.0,10.0,89,0.00,,,0.00,weatherlink.com 1.10,2013-05-28 01:48:00,
2013-05-28 03:03:00,44.6,42.0,29.21,WSW,255,6.0,10.0,89,0.00,,,0.00,weatherlink.com 1.10,2013-05-28 02:03:00,
2013-05-28 03:18:00,44.5,42.0,29.21,North,1,0.0,9.0,89,0.00,,,0.00,weatherlink.com 1.10,2013-05-28 02:18:00,
2013-05-28 03:33:00,44.3,41.0,29.21,NNW,333,3.0,7.0,89,0.00,,,0.00,weatherlink.com 1.10,2013-05-28 02:33:00,
2013-05-28 03:48:00,43.8,41.0,29.21,SW,215,1.0,6.0,90,0.00,,,0.00,weatherlink.com 1.10,2013-05-28 02:48:00,
2013-05-28 04:03:00,43.8,41.0,29.21,WSW,256,1.0,5.0,91,0.00,,,0.00,weatherlink.com 1.10,2013-05-28 03:03:00,
2013-05-28 04:18:00,43.8,41.0,29.21,West,264,3.0,6.0,91,0.00,,,0.00,weatherlink.com 1.10,2013-05-28 03:18:00,
2013-05-28 04:33:00,43.7,41.0,29.21,SSW,207,1.0,2.0,91,0.00,,,0.00,weatherlink.com 1.10,2013-05-28 03:33:00,
2013-05-28 04:49:00,43.5,41.0,29.21,NNW,338,1.0,6.0,91,0.00,,,0.00,weatherlink.com 1.10,2013-05-28 03:49:00,
2013-05-28 05:03:00,43.6,41.0,29.22,NNW,348,7.0,7.0,91,0.00,,,0.00,weatherlink.com 1.10,2013-05-28 04:03:00,
2013-05-28 05:18:00,43.9,42.0,29.22,WSW,248,4.0,7.0,91,0.00,,,0.00,weatherlink.com 1.10,2013-05-28 04:18:00,
2013-05-28 05:33:00,44.2,42.0,29.23,NW,305,5.0,9.0,91,0.00,,,0.00,weatherlink.com 1.10,2013-05-28 04:33:00,
2013-05-28 05:48:00,44.9,42.0,29.23,WNW,283,4.0,10.0,90,0.00,,,0.00,weatherlink.com 1.10,2013-05-28 04:48:00,
2013-05-28 06:03:00,45.3,43.0,29.23,WNW,288,4.0,7.0,90,0.00,,,0.00,weatherlink.com 1.10,2013-05-28 05:03:00,
2013-05-28 06:18:00,45.7,43.0,29.23,North,350,2.0,11.0,90,0.00,,,0.00,weatherlink.com 1.10,2013-05-28 05:18:00,
2013-05-28 06:33:00,46.4,43.0,29.23,SW,229,2.0,11.0,89,0.00,,,0.00,weatherlink.com 1.10,2013-05-28 05:33:00,
2013-05-28 06:48:00,47.7,44.0,29.24,WNW,300,1.0,5.0,87,0.00,,,0.00,weatherlink.com 1.10,2013-05-28 05:48:00,
2013-05-28 07:03:00,48.4,44.0,29.24,NNW,333,4.0,7.0,86,0.00,,,0.00,weatherlink.com 1.10,2013-05-28 06:03:00,
2013-05-28 07:18:00,49.1,45.0,29.24,WSW,252,2.0,5.0,84,0.00,,,0.00,weatherlink.com 1.10,2013-05-28 06:18:00,
2013-05-28 07:33:00,48.1,44.0,29.25,NNW,328,2.0,9.0,85,0.00,,,0.00,weatherlink.com 1.10,2013-05-28 06:33:00,
2013-05-28 07:48:00,49.4,45.0,29.25,WNW,285,3.0,5.0,84,0.00,,,0.00,weatherlink.com 1.10,2013-05-28 06:48:00,
2013-05-28 08:03:00,50.0,44.0,29.26,NNE,32,3.0,6.0,81,0.00,,,0.00,weatherlink.com 1.10,2013-05-28 07:03:00,
2013-05-28 08:18:00,49.7,44.0,29.26,NW,308,4.0,7.0,82,0.00,,,0.00,weatherlink.com 1.10,2013-05-28 07:18:00,
2013-05-28 08:33:00,48.2,44.0,29.27,NW,309,6.0,7.0,84,0.00,,,0.00,weatherlink.com 1.10,2013-05-28 07:33:00,
2013-05-28 08:48:00,49.6,45.0,29.26,NW,316,5.0,6.0,83,0.00,,,0.00,weatherlink.com 1.10,2013-05-28 07:48:00,
2013-05-28 09:03:00,50.3,44.0,29.27,NNW,339,0.0,6.0,79,0.00,,,0.00,weatherlink.com 1.10,2013-05-28 08:03:00,
2013-05-28 09:18:00,50.1,44.0,29.27,South,174,2.0,6.0,80,0.00,,,0.00,weatherlink.com 1.10,2013-05-28 08:18:00,
2013-05-28 09:33:00,50.7,44.0,29.27,South,171,0.0,3.0,78,0.00,,,0.00,weatherlink.com 1.10,2013-05-28 08:33:00,
2013-05-28 09:48:00,52.0,44.0,29.27,SSW,204,0.0,4.0,75,0.00,,,0.00,weatherlink.com 1.10,2013-05-28 08:48:00,
2013-05-28 10:03:00,51.4,44.0,29.28,SSE,153,6.0,6.0,76,0.00,,,0.00,weatherlink.com 1.10,2013-05-28 09:03:00,
2013-05-28 10:18:00,51.0,43.0,29.27,SSE,148,6.0,7.0,75,0.00,,,0.00,weatherlink.com 1.10,2013-05-28 09:18:00,
2013-05-28 10:33:00,50.5,44.0,29.28,SSE,165,4.0,7.0,77,0.00,,,0.00,weatherlink.com 1.10,2013-05-28 09:33:00,
2013-05-28 10:48:00,50.8,43.0,29.28,South,188,3.0,5.0,75,0.00,,,0.00,weatherlink.com 1.10,2013-05-28 09:48:00,
2013-05-28 11:03:00,51.1,43.0,29.28,SSE,162,4.0,5.0,74,0.00,,,0.00,weatherlink.com 1.10,2013-05-28 10:03:00,
2013-05-28 11:18:00,51.4,43.0,29.28,South,174,3.0,7.0,73,0.00,,,0.00,weatherlink.com 1.10,2013-05-28 10:18:00,
2013-05-28 11:33:00,51.6,43.0,29.28,SE,131,4.0,7.0,72,0.00,,,0.00,weatherlink.com 1.10,2013-05-28 10:33:00,
2013-05-28 11:48:00,52.7,44.0,29.28,ESE,114,4.0,6.0,72,0.00,,,0.00,weatherlink.com 1.10,2013-05-28 10:48:00,
2013-05-28 12:03:00,53.0,45.0,29.28,SE,139,7.0,10.0,75,0.00,,,0.00,weatherlink.com 1.10,2013-05-28 11:03:00,
2013-05-28 12:18:00,52.6,45.0,29.28,SE,131,7.0,9.0,74,0.00,,,0.00,weatherlink.com 1.10,2013-05-28 11:18:00,
2013-05-28 12:33:00,52.6,45.0,29.28,East,80,1.0,8.0,74,0.00,,,0.00,weatherlink.com 1.10,2013-05-28 11:33:00,
2013-05-28 12:48:00,53.7,44.0,29.28,South,169,2.0,7.0,71,0.00,,,0.00,weatherlink.com 1.10,2013-05-28 11:48:00,
2013-05-28 13:03:00,54.0,44.0,29.28,South,180,4.0,6.0,69,0.00,,,0.00,weatherlink.com 1.10,2013-05-28 12:03:00,
2013-05-28 13:18:00,54.6,45.0,29.28,ESE,120,5.0,7.0,69,0.00,,,0.00,weatherlink.com 1.10,2013-05-28 12:18:00,
2013-05-28 13:33:00,53.8,45.0,29.28,SE,141,6.0,10.0,73,0.00,,,0.00,weatherlink.com 1.10,2013-05-28 12:33:00,
2013-05-28 13:48:00,53.4,45.0,29.29,SE,143,6.0,11.0,74,0.00,,,0.00,weatherlink.com 1.10,2013-05-28 12:48:00,
2013-05-28 14:03:00,54.0,46.0,29.29,SSE,148,4.0,10.0,73,0.00,,,0.00,weatherlink.com 1.10,2013-05-28 13:03:00,
2013-05-28 14:18:00,53.7,45.0,29.29,SSE,165,6.0,9.0,73,0.00,,,0.00,weatherlink.com 1.10,2013-05-28 13:18:00,
2013-05-28 14:34:00,54.4,46.0,29.29,East,92,5.0,10.0,73,0.00,,,0.00,weatherlink.com 1.10,2013-05-28 13:34:00,
2013-05-28 14:49:00,54.7,46.0,29.29,SE,129,10.0,12.0,73,0.00,,,0.00,weatherlink.com 1.10,2013-05-28 13:49:00,
2013-05-28 15:04:00,54.6,45.0,29.29,SE,141,7.0,9.0,69,0.00,,,0.00,weatherlink.com 1.10,2013-05-28 14:04:00,
2013-05-28 15:19:00,55.0,45.0,29.28,SSE,150,6.0,9.0,70,0.00,,,0.00,weatherlink.com 1.10,2013-05-28 14:19:00,
2013-05-28 15:34:00,55.1,45.0,29.29,SSE,150,5.0,10.0,68,0.00,,,0.00,weatherlink.com 1.10,2013-05-28 14:34:00,
2013-05-28 15:49:00,55.3,45.0,29.29,SE,133,7.0,11.0,69,0.00,,,0.00,weatherlink.com 1.10,2013-05-28 14:49:00,
2013-05-28 16:04:00,54.9,45.0,29.30,SE,129,7.0,11.0,69,0.00,,,0.00,weatherlink.com 1.10,2013-05-28 15:04:00,
2013-05-28 16:19:00,55.3,45.0,29.30,SE,125,8.0,13.0,69,0.00,,,0.00,weatherlink.com 1.10,2013-05-28 15:19:00,
2013-05-28 16:34:00,55.2,44.0,29.30,ESE,115,9.0,13.0,67,0.00,,,0.00,weatherlink.com 1.10,2013-05-28 15:34:00,
2013-05-28 16:49:00,55.2,44.0,29.30,East,88,3.0,12.0,67,0.00,,,0.00,weatherlink.com 1.10,2013-05-28 15:49:00,
2013-05-28 17:04:00,55.0,44.0,29.30,SE,142,7.0,11.0,66,0.00,,,0.00,weatherlink.com 1.10,2013-05-28 16:04:00,
2013-05-28 17:19:00,54.7,43.0,29.31,SE,143,6.0,11.0,66,0.00,,,0.00,weatherlink.com 1.10,2013-05-28 16:19:00,
2013-05-28 17:34:00,54.6,44.0,29.31,SE,141,6.0,11.0,67,0.00,,,0.00,weatherlink.com 1.10,2013-05-28 16:34:00,
2013-05-28 17:49:00,54.1,43.0,29.31,ESE,106,5.0,10.0,67,0.00,,,0.00,weatherlink.com 1.10,2013-05-28 16:49:00,
2013-05-28 18:04:00,53.7,42.0,29.31,SE,129,6.0,11.0,66,0.00,,,0.00,weatherlink.com 1.10,2013-05-28 17:04:00,
2013-05-28 18:19:00,53.7,43.0,29.32,SSE,156,3.0,10.0,68,0.00,,,0.00,weatherlink.com 1.10,2013-05-28 17:19:00,
2013-05-28 18:34:00,53.3,44.0,29.32,ESE,106,3.0,10.0,71,0.00,,,0.00,weatherlink.com 1.10,2013-05-28 17:34:00,
2013-05-28 18:49:00,52.4,45.0,29.32,ESE,111,1.0,11.0,75,0.00,,,0.00,weatherlink.com 1.10,2013-05-28 17:49:00,
2013-05-28 19:04:00,52.0,44.0,29.32,SE,128,4.0,7.0,75,0.00,,,0.00,weatherlink.com 1.10,2013-05-28 18:04:00,
2013-05-28 19:19:00,52.3,44.0,29.33,SE,129,2.0,6.0,74,0.00,,,0.00,weatherlink.com 1.10,2013-05-28 18:19:00,
2013-05-28 19:34:00,52.2,45.0,29.33,SSE,153,2.0,8.0,77,0.00,,,0.00,weatherlink.com 1.10,2013-05-28 18:34:00,
2013-05-28 19:49:00,51.9,45.0,29.33,SE,131,5.0,5.0,78,0.00,,,0.00,weatherlink.com 1.10,2013-05-28 18:49:00,
2013-05-28 20:04:00,52.0,45.0,29.33,South,174,1.0,4.0,78,0.00,,,0.00,weatherlink.com 1.10,2013-05-28 19:04:00,
2013-05-28 20:19:00,52.4,43.0,29.34,NE,51,2.0,4.0,70,0.00,,,0.00,weatherlink.com 1.10,2013-05-28 19:19:00,
2013-05-28 20:34:00,52.3,43.0,29.34,ESE,114,3.0,6.0,70,0.00,,,0.00,weatherlink.com 1.10,2013-05-28 19:34:00,
2013-05-28 21:04:00,51.9,43.0,29.34,ESE,102,2.0,6.0,73,0.00,,,0.00,weatherlink.com 1.10,2013-05-28 20:04:00,
2013-05-28 21:19:00,51.4,44.0,29.35,NNE,32,4.0,7.0,75,0.00,,,0.00,weatherlink.com 1.10,2013-05-28 20:19:00,
2013-05-28 21:34:00,51.0,44.0,29.35,ESE,117,3.0,8.0,76,0.00,,,0.00,weatherlink.com 1.10,2013-05-28 20:34:00,
2013-05-28 21:49:00,50.8,45.0,29.35,ENE,63,2.0,5.0,79,0.00,,,0.00,weatherlink.com 1.10,2013-05-28 20:49:00,
2013-05-28 22:04:00,50.5,45.0,29.36,East,94,1.0,11.0,81,0.00,,,0.00,weatherlink.com 1.10,2013-05-28 21:04:00,
2013-05-28 22:19:00,50.3,45.0,29.36,NE,44,9.0,10.0,83,0.00,,,0.00,weatherlink.com 1.10,2013-05-28 21:19:00,
2013-05-28 22:34:00,50.1,46.0,29.36,ESE,113,3.0,8.0,85,0.00,,,0.00,weatherlink.com 1.10,2013-05-28 21:34:00,
2013-05-28 22:49:00,49.9,46.0,29.37,East,101,6.0,9.0,86,0.00,,,0.00,weatherlink.com 1.10,2013-05-28 21:49:00,
2013-05-28 23:04:00,49.8,46.0,29.37,ESE,104,3.0,13.0,87,0.00,,,0.00,weatherlink.com 1.10,2013-05-28 22:04:00,
2013-05-28 23:19:00,49.5,46.0,29.37,NNE,32,3.0,8.0,88,0.00,,,0.00,weatherlink.com 1.10,2013-05-28 22:19:00,
2013-05-28 23:34:00,49.0,46.0,29.38,ENE,66,3.0,11.0,90,0.02,,,0.02,weatherlink.com 1.10,2013-05-28 22:34:00,
2013-05-28 23:49:00,48.7,47.0,29.38,North,8,8.0,9.0,92,0.03,,,0.03,weatherlink.com 1.10,2013-05-28 22:49:00,